Location: Doschendorf
(50.0069°N, 11.0602°E)
Time: 05:01:24
(UTC+00:00)

Cosmos 1624 Rocket - Pass Details

Date: 17 November 2019
Orbit: 756 x 785 km, 74.0° (Epoch: 12 December)

Event Time Altitude Azimuth Distance (km) Brightness Sun altitude
Rises 17:58:59 0° 333° (NNW) 3,286 7.6 -23.7°
Reaches altitude 10° 18:01:24 10° 331° (NNW) 2,355 6.8 -24.1°
Maximum altitude 18:06:41 62° 252° (WSW) 881 4.4 -25.0°
Enters shadow 18:11:45 11° 172° (S) 2,272 6.3 -25.8°
